If you wish to contribute or participate in the discussions about articles you are invited to join SKYbrary as a registered user

 Actions

Bauru Airport

From SKYbrary Wiki

SBBU
Airport
ICAO: SBBU – IATA: BAU
Summary
Name Bauru Airport
Region South America and Caribbean
Territory Brazil BR.gif
Location Bauru, Sao Paulo
Serving Bauru
Elevation 617.22 m
2,025 ft617.22 m
Coordinates 22° 20' 37.00" S, 49° 3' 14.00" W
Runways
Designator Length Width Surface ROPS
14/32 1501 m4,924.541 ft
35 m114.829 ft
ASP /


METAR
Observation SBBU 131800Z 24002KT 9999 BKN030 38/15 Q1012
Station Bauru
Date/Time 13 October 2019 18:00:00
Wind direction 240°
Wind speed 02 kts
Lowest cloud amount broken clouds
Temperature 38°C
Dew point 15°C
Humidity 25%
QNH 1012 hPa
Weather condition n/a

Comte. João Ribeiro de Barros Airport is an airport serving Bauru, Brazil.

Climatology

Humid subtropical climate (Köppen climate classification Cwa)

Maps

Terrain

Loading map...

Airport Layout

Loading map...


Accidents & Serious Incidents at or in vicinity of SBBU

None on SKYbrary